Regional Weather Roundup
Issued by NWS Huntsville, AL

Home | Current Version | Previous Version | Text Only | Print | Product List | Glossary On
Versions: 1 2 3 4 5 6 7 8 9 10 11 12 13 14 15 16 17 18 19 20 21 22 23 24 25 26 27
000
ASUS44 KHUN 300810
RWRHUN

WEATHER ROUNDUP FOR THE TENNESSEE VALLEY
NATIONAL WEATHER SERVICE HUNTSVILLE AL
300 AM CDT FRI SEP 30 2016

ALZ001>004-300900-
NORTHWEST ALABAMA

CITY           SKY/WX    TMP DP  RH WIND       PRES   REMARKS
COURTLAND HCN    N/A     50 N/A N/A CALM        N/A
RUSSELLVILLE     N/A     46 N/A N/A MISG        N/A
SHOALS AIRPORT CLEAR     51  48  89 CALM      30.08F
SHOALS TVA RES   N/A     50 N/A N/A MISG        N/A
$$

ALZ005>007-016-300900-
NORTH CENTRAL ALABAMA

CITY           SKY/WX    TMP DP  RH WIND       PRES   REMARKS
CULLMAN AG STN   N/A     52 N/A N/A CALM        N/A
DECATUR AP     PTCLDY    51  51 100 N5        30.07F
HUNTSVILLE AP  CLEAR     51  48  89 CALM      30.07S
MERIDIANVILLE  CLEAR     48  43  81 CALM      30.07F
REDSTONE ARSN  CLEAR     51  50  95 CALM      30.06F
VINEMONT AP    FAIR      49  47  96 CALM      30.08F
$$

ALZ008>010-300900-
NORTHEAST ALABAMA

CITY           SKY/WX    TMP DP  RH WIND       PRES   REMARKS
ALBERTVILLE    PTCLDY    52  52 100 N3        30.05F
FORT PAYNE     PTCLDY    46  45  93 CALM      30.05S
SCOTTSBORO AP  CLOUDY    52  50  93 CALM      30.07S
SCOTTSBORO HCN   N/A     50 N/A N/A MISG        N/A
VALLEY HEAD      N/A     46 N/A N/A MISG        N/A
$$

TNZ076-096-097-300900-
SOUTHEASTERN MIDDLE TENNESSEE

CITY           SKY/WX    TMP DP  RH WIND       PRES   REMARKS
TULLAHOMA        N/A     45  43  93 CALM      30.06F VSB 1/2
WINCHESTER     CLOUDY    48  48 100 CALM      30.06F
$$

...SURROUNDING SITES...

CITY           SKY/WX    TMP DP  RH WIND       PRES   REMARKS
ATLANTA        CLEAR     55  49  80 NW7       30.01F
ANNISTON       PTCLDY    55  48  77 CALM      30.05F
BIRMINGHAM     CLEAR     55  50  83 CALM      30.08F
CHATTANOOGA    CLEAR     54  49  83 CALM      30.04F
CORINTH        FAIR      52  50  93 W3        30.08F
DALTON         CLEAR     50  50 100 NW3       30.03F
GADSDEN        CLEAR     50  48  93 W3        30.06F
GOLDEN TRNGL   CLEAR     52  45  76 CALM      30.08F
HALEYVILLE     FAIR      49  47  93 CALM      30.10F
JACKSON TN       N/A    N/A N/A N/A MISG      30.10S
MEMPHIS        CLOUDY    62  56  80 NW3       30.11S
NASHVILLE      PTCLDY    50  48  93 CALM      30.06F
OXFORD MS      CLOUDY    54  50  87 CALM      30.12F
ROME           CLEAR     51  46  83 CALM      30.04R
SAVANNAH       CLOUDY    50  48  93 CALM      30.08S
TUPELO         CLOUDY    58  52  80 SW6       30.09S
TUSCALOOSA     CLEAR     56  51  84 CALM      30.08F
$$

...GULF COAST WEATHER...

CITY           SKY/WX    TMP DP  RH WIND       PRES   REMARKS
GULFPORT       PTCLDY    61  53  75 N6        30.06F
PASCAGOULA     PTCLDY    54  54 100 CALM      30.06F
MOBILE         CLEAR     57  52  83 NW3       30.07S
GULF SHORES    SUNNY     60  53  78 CALM      30.05S
PENSACOLA      CLEAR     61  51  70 N5        30.03F
DESTIN         CLEAR     70  53  54 N9        30.03F
PANAMA CITY    CLEAR     68  51  56 E10       30.01F
APPALACHICOLA  CLEAR     67  59  75 N7        30.00F
$$





USA.gov is the U.S. government's official web portal to all federal, state and local government web resources and services.